Notices

What's New in latest Release from April 7th, 2021:

- Updated Glossary, including Speed of Maximum Gust, and Total Hourly Precipitation

- Updated national and regional climate services offices contacts and prices information

- Addition of station inventory lists for 1981-2010, 1971-2000, and 1961-1990 Normals.

If you haven't already, please take our survey and provide feedback about our website: https://eccc.sondage-survey.ca/f/LanguageSelection.aspx?s=442ca660-fcf1-47c0-95a9-59707d6fd709

Hourly Data Report for April 16, 2021

CLYDE RIVER A
NUNAVUT
Current Station Operator: NAVCAN

70°29'09.000" N
68°31'01.000" W
26.50 m
2400804
71090
YCY

Download Data

Hourly Data (April 2021)
Hourly Data Report for April 16, 2021
TIME
LST
Temp Definition
°C
Dew Point Definition
°C
Rel Hum Definition
%
Precip. Amount Definition
mm

Wind Dir Definition
10's deg

Wind Spd Definition
km/h
Visibility Definition
km
Stn Press Definition
kPa
Hmdx Definition


Wind Chill Definition


Weather Definition


00:00 -14.9 -16.8 86 0.0 31 48 4.0 101.26   -28 Snow,Blowing Snow
01:00 -14.6 -16.5 86 0.0 31 50 4.0 101.19   -28 Snow,Blowing Snow
02:00 -14.2 -16.3 85 0.0 31 46 4.8 101.13   -27 Snow
03:00 -15.1 -16.8 87 0.0 31 39 9.7 101.09   -27 Fog
04:00 -13.0 -14.2 91 0.0 32 63 0.6 100.93   -27 Moderate Snow,Blowing Snow
05:00 -12.4 -14.0 88 0.0 32 55 1.6 100.87   -26 Snow,Blowing Snow
06:00 -12.3 -13.9 88 0.0 32 54 1.2 100.85   -25 Snow,Blowing Snow
07:00 -12.1 -13.8 87 0.0 32 55 1.6 100.73   -25 Snow,Blowing Snow
08:00 -12.2 -13.7 89 0.0 33 63 0.8 100.64   -26 Moderate Snow,Blowing Snow
09:00 -11.6 -13.2 88 0.0 32 59 1.2 100.62   -25 Snow,Blowing Snow
10:00 -11.2 -12.7 89 0.0 33 72 0.4 100.45   -25 Heavy Snow,Blowing Snow
11:00 -10.8 -12.5 87 0.0 33 68 1.2 100.38   -24 Snow,Blowing Snow
12:00 -10.5 -12.3 87 0.0 32 65 1.6 100.42   -24 Snow,Blowing Snow
13:00 -10.6 -12.4 87 0.0 32 55 2.4 100.41   -23 Snow,Blowing Snow
14:00 -10.1 -12.5 83 0.0 31 43 11.3 100.51   -21 LegendNANA
15:00 -10.6 -12.7 85 0.0 33 52 4.8 100.48   -23 Snow
16:00 -10.6 -12.8 84 0.0 31 43 11.3 100.51   -22 Snow
17:00 -11.3 -13.5 84 0.0 32 45 12.9 100.47   -23 Snow
18:00 -11.9 -13.7 87 0.0 32 34 16.1 100.50   -23 LegendNANA
19:00 -11.9 -13.9 85 0.0 32 41 6.4 100.51   -23 Fog
20:00 -12.2 -14.4 84 0.0 31 34 14.5 100.50   -23 LegendNANA
21:00 -12.0 -14.8 80 0.0 29 28 16.1 100.50   -22 LegendNANA
22:00 -13.0 -16.0 79 0.0 26 21 16.1 100.47   -22 LegendNANA
23:00 -14.2 -16.9 80 0.0 27 22 16.1 100.45   -24 LegendNANA

Notes on Data Quality.

Legend

  • E = Estimated
  • M = Missing
  • NA = Not Available*
  • [empty] = Indicates an unobserved value
Date modified: